Wetterdaten Herbst 2023

Datum T max T min Regen
01.09.2023 23.2 °C 14.5 °C 2.6 mm
02.09.2023 26.1 °C 14.2 °C 0 mm
03.09.2023 24.8 °C 14.8 °C 0 mm
04.09.2023 27.1 °C 12.8 °C 0 mm
05.09.2023 26.8 °C 13.1 °C 0 mm
06.09.2023 27.5 °C 11.4 °C 0 mm
07.09.2023 28.1 °C 12.8 °C 0 mm
08.09.2023 27.4 °C 13.3 °C 0 mm
09.09.2023 28.4 °C 15.4 °C 0 mm
10.09.2023 28.8 °C 15.9 °C 0 mm
11.09.2023 28.6 °C 15.2 °C 0 mm
12.09.2023 29.4 °C 16.9 °C 0 mm
13.09.2023 22.6 °C 18.1 °C 1.8 mm
14.09.2023 21.5 °C 13.7 °C 0 mm
15.09.2023 25.2 °C 10.3 °C 0 mm
16.09.2023 27.1 °C 13.9 °C 0 mm
17.09.2023 28.3 °C 16.8 °C 0 mm
18.09.2023 22.2 °C 17.1 °C 2.4 mm
19.09.2023 21.9 °C 15.3 °C 6 mm
20.09.2023 25.1 °C 11.8 °C 0 mm
21.09.2023 25.9 °C 14.2 °C 5 mm
22.09.2023 20 °C 12.8 °C 5.6 mm
23.09.2023 18.2 °C 9.8 °C 0 mm
24.09.2023 19.1 °C 8.3 °C 0 mm
25.09.2023 21.2 °C 5.7 °C 0 mm
26.09.2023 22.3 °C 9.7 °C 0 mm
27.09.2023 23.9 °C 9.2 °C 0 mm
28.09.2023 24.8 °C 12.2 °C 0 mm
29.09.2023 26.6 °C 13.1 °C 0 mm
30.09.2023 20.2 °C 12.6 °C 0 mm
01.10.2023 22.5 °C 10.1 °C 0 mm
02.10.2023 25.4 °C 10.4 °C 0 mm
03.10.2023 26.7 °C 12.2 °C 2.6 mm
04.10.2023 17.7 °C 8.8 °C 0 mm
05.10.2023 16.3 °C 8 °C 0 mm
06.10.2023 18.9 °C 6.8 °C 0 mm
07.10.2023 20.1 °C 6.8 °C 0 mm
08.10.2023 24.2 °C 10.3 °C 0 mm
09.10.2023 24 °C 11.3 °C 0 mm
10.10.2023 21.9 °C 10.1 °C 0 mm
11.10.2023 26.1 °C 9.9 °C 0 mm
12.10.2023 20.7 °C 12 °C 0 mm
13.10.2023 27.3 °C 12.1 °C 0 mm
14.10.2023 22.8 °C 9.5 °C 6.4 mm
15.10.2023 12.2 °C 4.1 °C 0.4 mm
16.10.2023 11.8 °C 0.9 °C 0 mm
17.10.2023 11.7 °C 1.6 °C 0 mm
18.10.2023 14.8 °C 2.9 °C 3.6 mm
19.10.2023 17.1 °C 9.6 °C 7.2 mm
20.10.2023 17.5 °C 12.7 °C 2.4 mm
21.10.2023 17.9 °C 12.3 °C 0.2 mm
22.10.2023 16.7 °C 8.9 °C 0 mm
23.10.2023 12.2 °C 5.4 °C 0.2 mm
24.10.2023 13.1 °C 11.1 °C 8.8 mm
25.10.2023 15.7 °C 8.2 °C 0.4 mm
26.10.2023 13.6 °C 9.6 °C 3.8 mm
27.10.2023 14.6 °C 9.9 °C 1.6 mm
28.10.2023 14.9 °C 9.8 °C 0.4 mm
29.10.2023 18.3 °C 11.4 °C 4.8 mm
30.10.2023 15.2 °C 10.2 °C 7.2 mm
31.10.2023 13.4 °C 9.8 °C 0.4 mm
01.11.2023 16.2 °C 9.3 °C 0 mm
02.11.2023 10.9 °C 7.5 °C 3.8 mm
03.11.2023 9.6 °C 5 °C 0 mm
04.11.2023 10.9 °C 4.6 °C 0.4 mm
05.11.2023 13.1 °C 8.6 °C 1.8 mm
06.11.2023 13.3 °C 7.7 °C 4 mm
07.11.2023 10.7 °C 6.3 °C 0.2 mm
08.11.2023 12.7 °C 4.7 °C 0 mm
09.11.2023 12.4 °C 3.3 °C 0.4 mm
10.11.2023 11.1 °C 7.3 °C 2.2 mm
11.11.2023 8.3 °C 4.7 °C 2.2 mm
12.11.2023 8.2 °C 3.2 °C 4 mm
13.11.2023 15.6 °C 5.1 °C 10.2 mm
14.11.2023 12.8 °C 10.1 °C 1 mm
15.11.2023 12.2 °C 8.7 °C 0.6 mm
16.11.2023 9.4 °C 6.2 °C 15.2 mm
17.11.2023 7 °C 4.1 °C 6.4 mm
18.11.2023 8.2 °C 3.6 °C 0.8 mm
19.11.2023 15.2 °C 7.3 °C 5 mm
20.11.2023 12.2 °C 8.1 °C 3.2 mm
21.11.2023 9.8 °C 6.9 °C 0.8 mm
22.11.2023 7.4 °C 0.7 °C 0.4 mm
23.11.2023 9.2 °C -1.2 °C 0.2 mm
24.11.2023 9.6 °C 2.4 °C 5.2 mm
25.11.2023 4.1 °C 1 °C 1.6 mm
26.11.2023 5.7 °C 1 °C 0.6 mm
27.11.2023 5.9 °C 2.2 °C 3.4 mm
28.11.2023 4.7 °C -1.1 °C 5.2 mm
29.11.2023 4.2 °C -0.9 °C 0 mm
30.11.2023 3.5 °C -0.5 °C 0 mm
 Hinweis zur Datenqualität
∅ Temperatur

12.9 °C

Abweichung vom Mittel

+2.6 °C

Niederschlag

152.6 mm

Abweichung vom Mittel

100 %

29.4 °C

Lufttemperatur
12.09.2023

1030.7 hPa

Luftdruck
22.11.2023

33.8 km/h

Windböen
11.11.2023

152.6 mm

Niederschlag
 

-1.2 °C

Lufttemperatur
23.11.2023

-1.1 °C

Bodentemperatur 5cm
11.03.2023

978 hPa

Luftdruck
20.10.2023
 Hinweis zur Datenqualität